Rochester, Indiana, United States (46975)
Lat: 41.06N, Lon: 86.22W
Wx Zone: INZ015
Local Info
Past Weather Observations for Today

NOTE: This archive is for the closest National Weather Service station to Rochester. Information may differ from the station used for current weather conditions.

Click here for Long-term Archive

Time Weather Temperature Dewpoint Humidity Pressure Winds Precip Visibility
15:55
Partly Cloudy
88°F / 31°C 72°F / 22°C 59% 29.98 in
(1015 mb)
Calm - 10SM
15:35
Mostly Cloudy
90°F / 32°C 73°F / 23°C 59% 29.98 in
(1015 mb)
S 3.5 mph
(S 6 kph)
- 10SM
15:15
Overcast
90°F / 32°C 72°F / 22°C 55% 29.98 in
(1015 mb)
ESE 3.5 mph
(ESE 6 kph)
- 10SM
14:55
Overcast
90°F / 32°C 72°F / 22°C 55% 30.01 in
(1016 mb)
Calm - 10SM
14:35
Mostly Cloudy
88°F / 31°C 70°F / 21°C 55% 30.01 in
(1016 mb)
Calm - 10SM
14:15
Partly Cloudy
88°F / 31°C 72°F / 22°C 59% 30.01 in
(1016 mb)
Calm - 10SM
13:55
Partly Cloudy
88°F / 31°C 72°F / 22°C 59% 30.01 in
(1016 mb)
Calm - 10SM
13:35
Partly Cloudy
88°F / 31°C 72°F / 22°C 59% 30.01 in
(1016 mb)
Calm - 10SM
13:15
Partly Cloudy
88°F / 31°C 72°F / 22°C 59% 30.01 in
(1016 mb)
Calm - 10SM
12:55
Mostly Cloudy
88°F / 31°C 72°F / 22°C 59% 30.01 in
(1016 mb)
NNE 3.5 mph
(NNE 6 kph)
- 10SM
12:35
Partly Cloudy
88°F / 31°C 72°F / 22°C 59% 30.01 in
(1016 mb)
ENE 3.5 mph
(ENE 6 kph)
- 10SM
12:15
Overcast
86°F / 30°C 72°F / 22°C 62% 30.04 in
(1017 mb)
Calm - 10SM
11:55
Overcast
86°F / 30°C 72°F / 22°C 62% 30.04 in
(1017 mb)
N 4.6 mph
(N 7 kph)
- 10SM
11:35
Mostly Cloudy
86°F / 30°C 72°F / 22°C 62% 30.04 in
(1017 mb)
N 3.5 mph
(N 6 kph)
- 10SM
11:15
Partly Cloudy
86°F / 30°C 72°F / 22°C 62% 30.04 in
(1017 mb)
NNW 3.5 mph
(NNW 6 kph)
- 10SM
10:55
Partly Cloudy
86°F / 30°C 72°F / 22°C 62% 30.01 in
(1016 mb)
Calm - 10SM
10:35
Partly Cloudy
86°F / 30°C 72°F / 22°C 62% 30.01 in
(1016 mb)
W 3.5 mph
(W 6 kph)
- 10SM
10:15
Mostly Cloudy
82°F / 28°C 72°F / 22°C 70% 30.01 in
(1016 mb)
W 3.5 mph
(W 6 kph)
- 10SM
09:55
Mostly Cloudy
84°F / 29°C 73°F / 23°C 70% 30.01 in
(1016 mb)
SW 3.5 mph
(SW 6 kph)
- 10SM
09:35
Partly Cloudy
82°F / 28°C 75°F / 24°C 79% 30.01 in
(1016 mb)
Calm - 10SM
09:15
Clear
81°F / 27°C 73°F / 23°C 79% 30.01 in
(1016 mb)
Calm - 10SM
08:55
Clear
81°F / 27°C 75°F / 24°C 84% 30.04 in
(1017 mb)
Calm - 10SM
08:35
Clear
79°F / 26°C 75°F / 24°C 89% 30.04 in
(1017 mb)
Calm - 10SM
08:15
Clear
79°F / 26°C 73°F / 23°C 84% 30.04 in
(1017 mb)
Calm - 10SM
07:55
Clear
77°F / 25°C 73°F / 23°C 89% 30.04 in
(1017 mb)
Calm - 10SM
07:35
Clear
77°F / 25°C 73°F / 23°C 89% 30.04 in
(1017 mb)
Calm - 10SM
07:15
Clear
73°F / 23°C 73°F / 23°C 100% 30.04 in
(1017 mb)
Calm - 10SM
06:55
Clear
73°F / 23°C 73°F / 23°C 100% 30.01 in
(1016 mb)
Calm - 7SM
06:35
Mostly Cloudy
Fog And Mist
70°F / 21°C 70°F / 21°C 100% 30.01 in
(1016 mb)
Calm - 2SM
06:15
Overcast
Fog
70°F / 21°C 70°F / 21°C 100% 30.01 in
(1016 mb)
Calm - M1/4SM
05:55
Mostly Cloudy
Fog
70°F / 21°C 70°F / 21°C 100% 30.01 in
(1016 mb)
Calm - 1/4SM
05:35
Mostly Cloudy
Fog
70°F / 21°C 70°F / 21°C 100% 30.01 in
(1016 mb)
Calm - 1/4SM
05:15
Clear
Fog And Mist
70°F / 21°C 70°F / 21°C 100% 30.01 in
(1016 mb)
Calm - 2SM
04:55
Clear
Fog And Mist
72°F / 22°C 72°F / 22°C 100% 30.01 in
(1016 mb)
Calm - 5SM
04:35
Clear
72°F / 22°C 72°F / 22°C 100% 30.01 in
(1016 mb)
SSW 3.5 mph
(SSW 6 kph)
- 7SM
04:15
Clear
Fog And Mist
72°F / 22°C 72°F / 22°C 100% 30.01 in
(1016 mb)
Calm - 5SM
03:55
Clear
72°F / 22°C 72°F / 22°C 100% 30.01 in
(1016 mb)
Calm - 10SM
03:35
Clear
72°F / 22°C 72°F / 22°C 100% 30.01 in
(1016 mb)
Calm - 7SM
03:15
Clear
72°F / 22°C 72°F / 22°C 100% 30.01 in
(1016 mb)
Calm - 7SM
02:55
Clear
72°F / 22°C 72°F / 22°C 100% 30.04 in
(1017 mb)
WNW 3.5 mph
(WNW 6 kph)
- 7SM
02:35
Clear
72°F / 22°C 72°F / 22°C 100% 30.01 in
(1016 mb)
Calm - 7SM
02:15
Clear
72°F / 22°C 72°F / 22°C 100% 30.01 in
(1016 mb)
Calm - 7SM
01:55
Clear
72°F / 22°C 72°F / 22°C 100% 30.01 in
(1016 mb)
SSW 3.5 mph
(SSW 6 kph)
- 10SM
01:35
Clear
72°F / 22°C 72°F / 22°C 100% 30.01 in
(1016 mb)
Calm - 7SM
01:15
Clear
73°F / 23°C 72°F / 22°C 94% 30.01 in
(1016 mb)
Calm - 7SM
00:55
Clear
73°F / 23°C 72°F / 22°C 94% 30.04 in
(1017 mb)
SSW 3.5 mph
(SSW 6 kph)
- 10SM
00:35
Clear
73°F / 23°C 72°F / 22°C 94% 30.04 in
(1017 mb)
SSW 4.6 mph
(SSW 7 kph)
- 10SM
00:15
Clear
73°F / 23°C 72°F / 22°C 94% 30.04 in
(1017 mb)
SSW 4.6 mph
(SSW 7 kph)
- 10SM
Time Weather Temperature Dewpoint Humidity Pressure Winds Precip Visibility


Weather for websites

WeatherForYou.com, LLC is not responsible for any damages or problems caused by this service. Current weather conditions are obtained from the closest station including government and personal stations which may have varying degrees of accuracy. Weather forecasts are derived from the NOAA NDFD. Like all things, this site belongs to Jesus Christ... He just trusts us to maintain it. If you have any questions or comments email webmaster@weatherforyou.com

Copyright © 2016, WeatherForYou.com LLC. All rights reserved.